LHX2H EGLL-EDDF

Flight info

Callsign LHX2H
Flight time 1h 5m
Altitude 35000
Route DET1J DET L6 DVR UL9 KONAN UL607 SPI T180 NIVNU T847 IMCOM IMCOM1A
Aircraft A319/M-SDE3FGHIRWY/LB1

Departure

Time 2026-05-07 09:59
Airport London Heathrow Airport (EGLL)

Arrival

Time 2026-05-07 11:04
Airport Frankfurt Main Airport (EDDF)
Time Latitude Longitude Altitude Speed Heading
2026-05-07 09:23 51.46827 -0.45181 86 ft 0 kts 360°
2026-05-07 09:48 51.46812 -0.45181 86 ft 3 kts 358°
2026-05-07 09:48 51.46791 -0.45179 90 ft 3 kts 352°
2026-05-07 09:49 51.46770 -0.45172 89 ft 3 kts 336°
2026-05-07 09:49 51.46754 -0.45155 91 ft 3 kts 295°
2026-05-07 09:49 51.46751 -0.45142 91 ft 1 kts 270°
2026-05-07 09:52 51.46751 -0.45143 86 ft 0 kts 270°
2026-05-07 09:52 51.46751 -0.45167 90 ft 5 kts 270°
2026-05-07 09:52 51.46750 -0.45249 86 ft 10 kts 269°
2026-05-07 09:52 51.46750 -0.45385 86 ft 15 kts 269°
2026-05-07 09:53 51.46749 -0.45573 86 ft 18 kts 269°
2026-05-07 09:53 51.46749 -0.45773 86 ft 18 kts 270°
2026-05-07 09:53 51.46748 -0.45979 86 ft 19 kts 270°
2026-05-07 09:53 51.46747 -0.46193 86 ft 19 kts 270°
2026-05-07 09:54 51.46748 -0.46413 86 ft 20 kts 271°
2026-05-07 09:54 51.46748 -0.46640 86 ft 20 kts 269°
2026-05-07 09:54 51.46747 -0.46868 86 ft 20 kts 270°
2026-05-07 09:54 51.46747 -0.47082 86 ft 19 kts 270°
2026-05-07 09:55 51.46746 -0.47298 86 ft 20 kts 270°
2026-05-07 09:55 51.46745 -0.47520 86 ft 20 kts 270°
2026-05-07 09:55 51.46744 -0.47749 86 ft 20 kts 270°
2026-05-07 09:55 51.46744 -0.47970 86 ft 16 kts 270°
2026-05-07 09:56 51.46743 -0.48109 86 ft 12 kts 270°
2026-05-07 09:56 51.46743 -0.48246 86 ft 13 kts 269°
2026-05-07 09:56 51.46742 -0.48401 86 ft 16 kts 270°
2026-05-07 09:56 51.46742 -0.48580 86 ft 16 kts 270°
2026-05-07 09:57 51.46726 -0.48734 87 ft 13 kts 221°
2026-05-07 09:57 51.46634 -0.48752 86 ft 14 kts 191°
2026-05-07 09:57 51.46538 -0.48788 86 ft 14 kts 176°
2026-05-07 09:57 51.46478 -0.48677 88 ft 15 kts 95°
2026-05-07 09:58 51.46479 -0.48503 86 ft 19 kts 89°
2026-05-07 09:58 51.46480 -0.47871 87 ft 96 kts 90°
2026-05-07 09:58 51.46485 -0.46455 92 ft 159 kts 89°
2026-05-07 09:58 51.46492 -0.44601 624 ft 166 kts 91°
2026-05-07 09:59 51.46508 -0.42740 1413 ft 168 kts 91°
2026-05-07 09:59 51.46177 -0.40881 1860 ft 188 kts 126°
2026-05-07 09:59 51.45337 -0.39113 2303 ft 210 kts 126°
2026-05-07 09:59 51.44504 -0.37026 2800 ft 235 kts 123°
2026-05-07 10:00 51.43690 -0.34613 3467 ft 257 kts 111°
2026-05-07 10:00 51.43254 -0.31777 4412 ft 266 kts 103°
2026-05-07 10:00 51.42846 -0.28852 5416 ft 272 kts 103°
2026-05-07 10:00 51.42425 -0.25854 5849 ft 277 kts 103°
2026-05-07 10:01 51.42011 -0.22850 5990 ft 277 kts 103°
2026-05-07 10:01 51.41600 -0.19840 6008 ft 277 kts 103°
2026-05-07 10:01 51.41193 -0.16849 6006 ft 276 kts 103°
2026-05-07 10:01 51.40784 -0.13831 6117 ft 280 kts 103°
2026-05-07 10:02 51.40368 -0.10791 7137 ft 280 kts 103°
2026-05-07 10:02 51.39946 -0.07727 8109 ft 284 kts 103°
2026-05-07 10:02 51.39518 -0.04613 8798 ft 288 kts 103°
2026-05-07 10:02 51.39097 -0.01570 9025 ft 287 kts 103°
2026-05-07 10:03 51.38662 0.01538 9107 ft 285 kts 103°
2026-05-07 10:03 51.38228 0.04626 9112 ft 284 kts 103°
2026-05-07 10:03 51.37794 0.07716 9113 ft 284 kts 103°
2026-05-07 10:03 51.37362 0.10798 9114 ft 284 kts 103°
2026-05-07 10:04 51.36931 0.13878 9352 ft 284 kts 103°
2026-05-07 10:04 51.36497 0.16975 9621 ft 286 kts 103°
2026-05-07 10:04 51.36060 0.20084 9893 ft 287 kts 103°
2026-05-07 10:04 51.35668 0.22863 10078 ft 288 kts 103°
2026-05-07 10:05 51.35217 0.26051 10309 ft 306 kts 103°
2026-05-07 10:05 51.34726 0.29513 10557 ft 330 kts 103°
2026-05-07 10:05 51.34211 0.33141 10991 ft 337 kts 103°
2026-05-07 10:05 51.33687 0.36821 11548 ft 342 kts 103°
2026-05-07 10:06 51.33153 0.40550 11872 ft 345 kts 103°
2026-05-07 10:06 51.32615 0.44309 11987 ft 349 kts 103°
2026-05-07 10:06 51.32072 0.48110 12828 ft 352 kts 103°
2026-05-07 10:06 51.31518 0.51953 13626 ft 357 kts 103°
2026-05-07 10:07 51.30957 0.55841 14336 ft 361 kts 103°
2026-05-07 10:07 51.30392 0.59756 15041 ft 365 kts 104°
2026-05-07 10:07 51.29808 0.63743 15761 ft 369 kts 103°
2026-05-07 10:07 51.29296 0.67779 16490 ft 372 kts 101°
2026-05-07 10:08 51.28829 0.71871 17191 ft 376 kts 101°
2026-05-07 10:08 51.28377 0.76011 17885 ft 380 kts 100°
2026-05-07 10:08 51.27918 0.80191 18557 ft 384 kts 101°
2026-05-07 10:08 51.27443 0.84405 19179 ft 387 kts 101°
2026-05-07 10:09 51.26949 0.88655 19803 ft 391 kts 101°
2026-05-07 10:09 51.26437 0.92934 20425 ft 394 kts 101°
2026-05-07 10:09 51.25915 0.97253 21062 ft 398 kts 101°
2026-05-07 10:09 51.25388 1.01602 21641 ft 402 kts 101°
2026-05-07 10:10 51.24855 1.05999 22224 ft 405 kts 101°
2026-05-07 10:10 51.24318 1.10431 22796 ft 408 kts 101°
2026-05-07 10:10 51.23775 1.14901 23351 ft 412 kts 101°
2026-05-07 10:10 51.23226 1.19398 23854 ft 415 kts 101°
2026-05-07 10:11 51.22670 1.23931 24305 ft 418 kts 102°
2026-05-07 10:11 51.22109 1.28494 24757 ft 420 kts 102°
2026-05-07 10:11 51.21542 1.33084 25195 ft 423 kts 102°
2026-05-07 10:11 51.20970 1.37701 25629 ft 426 kts 102°
2026-05-07 10:12 51.20392 1.42353 26058 ft 429 kts 102°
2026-05-07 10:12 51.19811 1.47033 26473 ft 432 kts 102°
2026-05-07 10:12 51.19222 1.51751 26895 ft 435 kts 102°
2026-05-07 10:12 51.18627 1.56492 27313 ft 438 kts 102°
2026-05-07 10:13 51.18027 1.61268 27730 ft 441 kts 102°
2026-05-07 10:13 51.17422 1.66074 28140 ft 444 kts 102°
2026-05-07 10:13 51.16814 1.70906 28533 ft 446 kts 102°
2026-05-07 10:13 51.16208 1.75701 28922 ft 449 kts 102°
2026-05-07 10:14 51.15578 1.80652 29075 ft 450 kts 102°
2026-05-07 10:14 51.14325 1.90379 29479 ft 454 kts 102°
2026-05-07 10:14 51.13684 1.95310 29852 ft 456 kts 102°
2026-05-07 10:15 51.13087 2.00287 30200 ft 459 kts 98°
2026-05-07 10:15 51.12788 2.05364 30502 ft 462 kts 95°
2026-05-07 10:15 51.12523 2.10467 30813 ft 464 kts 95°
2026-05-07 10:15 51.12251 2.15591 31117 ft 466 kts 95°
2026-05-07 10:16 51.11973 2.20717 31527 ft 465 kts 95°
2026-05-07 10:16 51.11692 2.25844 31964 ft 464 kts 95°
2026-05-07 10:16 51.11411 2.30948 32393 ft 463 kts 95°
2026-05-07 10:16 51.11131 2.36045 32820 ft 462 kts 96°
2026-05-07 10:17 51.10850 2.41125 33244 ft 461 kts 96°
2026-05-07 10:17 51.10568 2.46197 33680 ft 460 kts 96°
2026-05-07 10:17 51.10284 2.51264 34110 ft 459 kts 96°
2026-05-07 10:17 51.09996 2.56312 34473 ft 458 kts 96°
2026-05-07 10:18 51.09703 2.61358 34815 ft 458 kts 96°
2026-05-07 10:18 51.09241 2.66370 35035 ft 458 kts 104°
2026-05-07 10:18 51.08395 2.71236 35084 ft 455 kts 107°
2026-05-07 10:19 51.06637 2.80882 35085 ft 454 kts 107°
2026-05-07 10:19 51.04882 2.90522 35084 ft 454 kts 107°
2026-05-07 10:20 51.03123 3.00161 35083 ft 454 kts 107°
2026-05-07 10:20 51.01350 3.09792 35080 ft 454 kts 107°
2026-05-07 10:21 50.99569 3.19417 35084 ft 454 kts 107°
2026-05-07 10:21 50.97776 3.29038 35078 ft 455 kts 107°
2026-05-07 10:22 50.95985 3.38658 35079 ft 455 kts 107°
2026-05-07 10:22 50.94183 3.48270 35077 ft 455 kts 108°
2026-05-07 10:23 50.92370 3.57875 35079 ft 455 kts 108°
2026-05-07 10:23 50.90548 3.67470 35086 ft 455 kts 108°
2026-05-07 10:24 50.88702 3.77054 35090 ft 455 kts 108°
2026-05-07 10:24 50.86841 3.86625 35094 ft 455 kts 108°
2026-05-07 10:25 50.84990 3.96131 35091 ft 455 kts 108°
2026-05-07 10:25 50.83124 4.05677 35088 ft 454 kts 108°
2026-05-07 10:26 50.81243 4.15285 35095 ft 454 kts 108°
2026-05-07 10:26 50.79379 4.24763 35082 ft 454 kts 108°
2026-05-07 10:27 50.77487 4.34291 35087 ft 454 kts 108°
2026-05-07 10:27 50.75583 4.43806 35088 ft 454 kts 108°
2026-05-07 10:28 50.73672 4.53316 35090 ft 454 kts 108°
2026-05-07 10:28 50.71760 4.62819 35082 ft 454 kts 108°
2026-05-07 10:29 50.69914 4.72352 35074 ft 454 kts 107°
2026-05-07 10:29 50.68087 4.81889 35074 ft 454 kts 108°
2026-05-07 10:30 50.65596 4.94614 35066 ft 454 kts 108°
2026-05-07 10:30 50.63670 5.04018 35060 ft 454 kts 109°
2026-05-07 10:31 50.61701 5.13464 35057 ft 454 kts 109°
2026-05-07 10:31 50.59737 5.22907 35059 ft 454 kts 108°
2026-05-07 10:32 50.57778 5.32341 35055 ft 453 kts 109°
2026-05-07 10:32 50.55814 5.41767 35056 ft 453 kts 109°
2026-05-07 10:33 50.53836 5.51176 35053 ft 453 kts 109°
2026-05-07 10:33 50.51846 5.60577 35049 ft 453 kts 108°
2026-05-07 10:34 50.49948 5.70007 35042 ft 453 kts 106°
2026-05-07 10:34 50.48221 5.79522 35036 ft 453 kts 105°
2026-05-07 10:35 50.46498 5.89029 35037 ft 453 kts 106°
2026-05-07 10:35 50.44720 5.98514 35027 ft 453 kts 107°
2026-05-07 10:36 50.42906 6.07974 34915 ft 456 kts 107°
2026-05-07 10:36 50.41989 6.12737 34664 ft 455 kts 107°
2026-05-07 10:36 50.41079 6.17492 34320 ft 455 kts 106°
2026-05-07 10:37 50.40165 6.22284 33174 ft 463 kts 106°
2026-05-07 10:37 50.39239 6.27133 32124 ft 466 kts 106°
2026-05-07 10:37 50.38302 6.32025 31030 ft 471 kts 106°
2026-05-07 10:37 50.37355 6.36948 30231 ft 469 kts 107°
2026-05-07 10:38 50.36518 6.41823 29559 ft 462 kts 101°
2026-05-07 10:38 50.36104 6.46772 28920 ft 454 kts 95°
2026-05-07 10:38 50.35811 6.51651 28273 ft 447 kts 95°
2026-05-07 10:38 50.35512 6.56462 27642 ft 441 kts 95°
2026-05-07 10:39 50.35209 6.61200 27032 ft 435 kts 95°
2026-05-07 10:39 50.34905 6.65893 26429 ft 430 kts 95°
2026-05-07 10:39 50.34601 6.70521 25835 ft 426 kts 95°
2026-05-07 10:39 50.34302 6.75110 25247 ft 422 kts 95°
2026-05-07 10:40 50.34013 6.79660 24664 ft 418 kts 95°
2026-05-07 10:40 50.33651 6.84157 24090 ft 415 kts 101°
2026-05-07 10:40 50.32876 6.88491 23530 ft 412 kts 111°
2026-05-07 10:40 50.31722 6.92578 22951 ft 409 kts 115°
2026-05-07 10:41 50.30521 6.96576 22458 ft 404 kts 115°
2026-05-07 10:41 50.29333 7.00537 21960 ft 401 kts 115°
2026-05-07 10:41 50.28150 7.04494 21442 ft 402 kts 115°
2026-05-07 10:41 50.26971 7.08449 20926 ft 401 kts 115°
2026-05-07 10:42 50.25797 7.12397 20397 ft 399 kts 115°
2026-05-07 10:42 50.24628 7.16315 19874 ft 397 kts 115°
2026-05-07 10:42 50.23462 7.20208 19356 ft 395 kts 115°
2026-05-07 10:42 50.22298 7.24076 18842 ft 393 kts 115°
2026-05-07 10:43 50.21136 7.27919 18326 ft 391 kts 115°
2026-05-07 10:43 50.19979 7.31743 17770 ft 388 kts 115°
2026-05-07 10:43 50.18895 7.35569 17275 ft 384 kts 111°
2026-05-07 10:43 50.17929 7.39437 16760 ft 382 kts 109°
2026-05-07 10:44 50.17032 7.43311 16261 ft 379 kts 109°
2026-05-07 10:44 50.16160 7.47173 15764 ft 375 kts 109°
2026-05-07 10:44 50.15294 7.50993 15267 ft 373 kts 109°
2026-05-07 10:44 50.14418 7.54783 14783 ft 371 kts 109°
2026-05-07 10:45 50.13529 7.58539 14304 ft 368 kts 109°
2026-05-07 10:45 50.12634 7.62265 13827 ft 365 kts 110°
2026-05-07 10:45 50.11736 7.65958 13311 ft 363 kts 110°
2026-05-07 10:45 50.10639 7.69473 12866 ft 360 kts 121°
2026-05-07 10:46 50.09217 7.72687 12687 ft 360 kts 125°
2026-05-07 10:46 50.07790 7.75877 12443 ft 359 kts 124°
2026-05-07 10:46 50.06376 7.79065 12198 ft 356 kts 124°
2026-05-07 10:46 50.04973 7.82228 11948 ft 355 kts 124°
2026-05-07 10:47 50.03572 7.85387 11721 ft 354 kts 124°
2026-05-07 10:47 50.02183 7.88539 11481 ft 354 kts 123°
2026-05-07 10:47 50.01107 7.91961 11236 ft 352 kts 108°
2026-05-07 10:47 50.00603 7.95657 11053 ft 349 kts 94°
2026-05-07 10:48 50.00682 7.99396 11030 ft 346 kts 79°
2026-05-07 10:48 50.01309 8.02998 11044 ft 345 kts 68°
2026-05-07 10:48 50.02162 8.06487 11042 ft 342 kts 67°
2026-05-07 10:48 50.02983 8.09860 11037 ft 325 kts 67°
2026-05-07 10:49 50.03758 8.13060 11043 ft 309 kts 67°
2026-05-07 10:49 50.04505 8.16138 11044 ft 301 kts 67°
2026-05-07 10:49 50.05245 8.19183 11043 ft 300 kts 67°
2026-05-07 10:49 50.05984 8.22214 11045 ft 300 kts 67°
2026-05-07 10:50 50.06723 8.25246 11052 ft 299 kts 67°
2026-05-07 10:50 50.07457 8.28275 10905 ft 298 kts 68°
2026-05-07 10:50 50.08184 8.31295 10662 ft 297 kts 68°
2026-05-07 10:50 50.08905 8.34299 10417 ft 296 kts 68°
2026-05-07 10:51 50.09623 8.37288 10172 ft 295 kts 68°
2026-05-07 10:51 50.10342 8.40271 9938 ft 293 kts 67°
2026-05-07 10:51 50.11057 8.43235 9700 ft 292 kts 67°
2026-05-07 10:51 50.11772 8.46198 9446 ft 290 kts 68°
2026-05-07 10:52 50.12474 8.49123 9202 ft 287 kts 68°
2026-05-07 10:52 50.13169 8.52032 8970 ft 286 kts 68°
2026-05-07 10:52 50.13860 8.54932 8724 ft 285 kts 68°
2026-05-07 10:52 50.14546 8.57819 8491 ft 284 kts 68°
2026-05-07 10:53 50.15218 8.60661 8261 ft 283 kts 68°
2026-05-07 10:53 50.15896 8.63533 8029 ft 282 kts 68°
2026-05-07 10:53 50.16572 8.66394 7801 ft 281 kts 68°
2026-05-07 10:53 50.17250 8.69245 7568 ft 280 kts 67°
2026-05-07 10:54 50.17926 8.72083 7343 ft 278 kts 67°
2026-05-07 10:54 50.18592 8.74887 7116 ft 272 kts 67°
2026-05-07 10:54 50.19237 8.77616 6887 ft 266 kts 67°
2026-05-07 10:54 50.19868 8.80293 6669 ft 260 kts 67°
2026-05-07 10:55 50.20478 8.82910 6444 ft 254 kts 68°
2026-05-07 10:55 50.21071 8.85492 6207 ft 250 kts 68°
2026-05-07 10:55 50.21652 8.88022 5973 ft 245 kts 68°
2026-05-07 10:55 50.22234 8.90503 5735 ft 241 kts 67°
2026-05-07 10:56 50.22823 8.92944 5499 ft 239 kts 67°
2026-05-07 10:56 50.23407 8.95360 5267 ft 237 kts 67°
2026-05-07 10:56 50.23837 8.97840 5045 ft 239 kts 85°
2026-05-07 10:56 50.23461 9.00353 4791 ft 241 kts 119°
2026-05-07 10:57 50.22292 9.02181 4526 ft 241 kts 152°
2026-05-07 10:57 50.20683 9.02768 4262 ft 240 kts 186°
2026-05-07 10:57 50.19125 9.01997 4048 ft 235 kts 211°
2026-05-07 10:57 50.17704 9.00725 3990 ft 236 kts 213°
2026-05-07 10:58 50.16298 8.99391 3992 ft 236 kts 213°
2026-05-07 10:58 50.14900 8.98052 3996 ft 236 kts 214°
2026-05-07 10:58 50.13523 8.96651 3988 ft 235 kts 223°
2026-05-07 10:58 50.12532 8.94682 3997 ft 231 kts 248°
2026-05-07 10:59 50.11960 8.92358 3997 ft 228 kts 253°
2026-05-07 10:59 50.11436 8.90103 3993 ft 214 kts 253°
2026-05-07 10:59 50.10943 8.87999 3999 ft 199 kts 252°
2026-05-07 10:59 50.10482 8.86039 3986 ft 190 kts 253°
2026-05-07 11:00 50.10032 8.84120 3806 ft 188 kts 253°
2026-05-07 11:00 50.09586 8.82227 3575 ft 184 kts 253°
2026-05-07 11:00 50.09150 8.80377 3338 ft 181 kts 254°
2026-05-07 11:00 50.08719 8.78547 3094 ft 179 kts 252°
2026-05-07 11:01 50.08291 8.76736 2850 ft 176 kts 253°
2026-05-07 11:01 50.07874 8.74970 2613 ft 174 kts 253°
2026-05-07 11:01 50.07457 8.73208 2379 ft 170 kts 252°
2026-05-07 11:01 50.07060 8.71527 2150 ft 160 kts 254°
2026-05-07 11:02 50.06881 8.69887 1935 ft 145 kts 270°
2026-05-07 11:02 50.06753 8.68413 1802 ft 135 kts 260°
2026-05-07 11:02 50.06476 8.67039 1610 ft 131 kts 254°
2026-05-07 11:02 50.06178 8.65710 1420 ft 130 kts 255°
2026-05-07 11:03 50.05875 8.64395 1210 ft 129 kts 251°
2026-05-07 11:03 50.05556 8.63070 1024 ft 132 kts 252°
2026-05-07 11:03 50.05239 8.61737 839 ft 131 kts 252°
2026-05-07 11:03 50.04929 8.60414 657 ft 130 kts 250°
2026-05-07 11:04 50.04614 8.59124 476 ft 125 kts 250°
2026-05-07 11:04 50.04326 8.57905 371 ft 109 kts 250°
2026-05-07 11:04 50.04111 8.57012 363 ft 71 kts 250°
2026-05-07 11:04 50.03992 8.56494 359 ft 35 kts 260°
2026-05-07 11:05 50.04010 8.56215 360 ft 16 kts 280°
2026-05-07 11:05 50.04018 8.56143 350 ft 1 kts 279°
2026-05-07 11:05 50.04020 8.56128 350 ft 0 kts 279°
2026-05-07 11:06 50.04029 8.56106 358 ft 7 kts 314°
2026-05-07 11:06 50.04092 8.56149 355 ft 15 kts 54°
2026-05-07 11:07 50.04140 8.56335 360 ft 21 kts 69°
2026-05-07 11:07 50.04190 8.56541 358 ft 20 kts 70°
2026-05-07 11:07 50.04236 8.56735 360 ft 17 kts 70°
2026-05-07 11:07 50.04323 8.56821 360 ft 14 kts 11°
2026-05-07 11:08 50.04367 8.56834 360 ft 0 kts 11°
2026-05-07 11:08 50.04369 8.56835 360 ft 1 kts 11°
2026-05-07 11:08 50.04385 8.56839 366 ft 5 kts
2026-05-07 11:08 50.04436 8.56850 359 ft 10 kts
2026-05-07 11:09 50.04518 8.56878 359 ft 13 kts 14°
2026-05-07 11:09 50.04616 8.56914 356 ft 16 kts 13°
2026-05-07 11:09 50.04722 8.56983 358 ft 16 kts 24°
2026-05-07 11:09 50.04808 8.57044 356 ft 13 kts 24°
2026-05-07 11:10 50.04862 8.57078 356 ft 6 kts
2026-05-07 11:10 50.04885 8.57028 357 ft 6 kts 295°
2026-05-07 11:10 50.04894 8.56999 364 ft 2 kts 295°
2026-05-07 11:10 50.04896 8.56991 363 ft 0 kts 295°